GFSMW_sfc_temp_159.txt.gz
Temp
86 84 79 78 78 76 74 72 69 68 69 70 69 68 67 67 66 65 63 63 63 63 63 65 64 64 63 61 61 61 62 64 63 63 64 70 72 70 71 73 69 67 66
83 80 76 75 74 73 72 71 69 68 71 73 73 72 69 68 67 65 62 62 61 61 62 61 62 60 61 59 59 58 59 63 62 57 61 63 68 67 71 69 69 65 68
81 77 72 71 71 71 71 71 70 70 72 73 70 69 67 65 64 63 63 60 60 59 59 59 59 60 60 58 57 56 56 56 60 59 56 55 56 57 68 68 68 65 64
83 79 73 70 70 71 71 72 72 71 71 69 68 65 66 65 67 65 62 60 59 58 58 58 58 57 58 56 56 57 56 56 55 58 60 58 56 52 53 63 64 64 63
83 79 74 72 72 71 69 70 71 71 68 67 69 67 68 65 65 62 59 58 57 57 57 56 55 55 56 54 53 53 53 55 54 55 54 56 58 57 52 52 56 61 62
82 82 77 74 72 72 69 69 68 68 67 67 67 66 66 63 61 60 59 59 58 56 54 54 53 53 53 52 53 53 51 52 53 53 54 52 51 51 51 50 52 51 58
78 78 73 71 70 68 66 66 66 65 66 65 65 65 63 62 60 60 59 57 55 53 50 53 51 51 50 51 51 50 51 51 50 50 52 54 52 52 52 49 48 48 56
72 73 74 71 69 65 64 63 64 63 63 62 62 61 60 59 58 56 56 55 53 51 50 50 50 50 50 51 51 52 51 51 51 49 50 52 52 52 51 48 45 45 51
68 68 71 69 67 63 62 61 63 61 60 60 58 58 58 56 54 53 52 51 50 50 50 50 49 49 49 49 51 50 49 51 50 50 49 49 51 51 51 50 49 45 41
64 66 68 67 66 65 64 62 63 60 59 57 56 54 53 53 51 50 49 49 49 50 50 49 49 48 49 49 50 50 48 48 48 49 47 46 47 49 49 49 49 48 45
64 64 66 67 67 65 63 61 59 58 54 53 53 51 49 49 49 48 48 49 50 49 49 49 48 48 48 48 48 47 47 46 46 47 46 44 46 47 48 47 47 46 47
66 66 66 66 65 63 61 58 57 52 52 51 49 47 47 48 47 47 48 49 49 49 49 48 48 47 47 47 46 45 45 44 44 44 44 42 45 44 45 45 45 45 46
65 64 65 64 63 61 59 53 49 48 48 48 47 45 44 47 47 48 48 49 49 47 48 48 46 46 45 45 45 45 44 43 42 42 41 38 39 39 40 42 42 43 44
63 63 61 60 59 58 55 51 49 49 48 47 46 42 42 46 46 47 48 47 48 47 47 46 45 44 44 44 44 44 44 43 41 40 39 35 33 31 33 38 38 39 40
61 61 61 60 58 56 55 54 50 50 51 47 43 42 42 45 43 44 46 46 46 46 47 45 44 44 43 41 41 43 42 41 40 40 39 34 31 28 27 30 30 32 34
61 63 64 64 61 58 56 56 53 51 50 44 40 36 38 38 40 42 42 43 43 44 43 43 43 41 38 31 31 37 40 38 36 35 36 36 32 31 26 26 26 27 25
62 62 62 62 62 62 58 55 54 51 47 45 37 33 35 34 34 38 41 40 38 39 36 34 35 32 31 29 30 32 35 33 31 30 31 32 31 29 30 27 27 27 26
58 57 57 58 58 60 59 56 52 47 42 36 33 34 33 31 33 33 32 32 32 32 32 32 32 32 30 28 28 29 31 30 29 30 29 29 27 25 25 26 26 26 25
38 44 49 52 54 54 53 47 44 41 37 33 32 32 32 31 31 30 31 31 31 31 31 31 31 30 28 27 27 27 31 29 29 29 27 27 25 25 25 25 23 24 23
41 37 41 49 49 47 48 40 36 34 33 33 32 32 31 31 29 31 31 31 32 31 32 30 31 31 28 27 26 28 31 29 28 29 28 25 24 24 24 23 24 20 22
42 48 39 38 39 46 42 36 34 33 33 33 31 30 31 29 30 31 31 31 31 31 30 30 30 30 30 27 25 26 30 30 29 28 27 25 24 23 23 23 21 19 24
49 50 45 38 36 40 38 34 33 33 33 31 30 29 29 30 31 31 31 31 31 30 29 29 29 30 29 28 25 25 26 26 29 27 26 22 21 22 22 22 22 23 27
52 53 50 41 38 38 37 33 33 32 31 31 29 29 30 31 32 31 30 31 31 31 30 30 29 28 29 27 25 23 23 23 27 26 20 19 19 20 22 21 23 25 26
51 52 47 40 37 38 36 35 32 32 31 31 30 30 31 30 32 34 33 33 32 32 31 31 31 30 29 28 27 25 24 22 23 20 22 21 21 21 23 25 24 24 24
51 51 47 43 39 38 36 33 33 33 32 31 31 31 31 31 32 34 34 34 34 34 32 32 32 30 29 29 30 29 28 27 26 24 24 25 27 26 27 26 26 26 26
50 47 46 43 39 37 34 34 35 35 34 33 32 31 31 31 32 32 30 29 30 29 29 30 33 27 27 25 24 23 22 21 21 24 26 25 26 27 27 27 26 26 24

GFSMW_sfc_temp_162.txt.gz
Temp
85 84 80 77 77 73 71 68 66 64 64 63 62 61 59 59 59 59 58 58 58 59 58 56 56 56 54 53 53 52 52 53 53 51 52 55 60 61 61 64 60 60 59
84 80 75 73 71 70 68 67 65 64 65 65 65 63 61 60 59 58 57 57 56 57 57 55 54 54 53 51 51 50 49 52 52 47 48 49 53 54 60 59 60 58 58
82 76 71 70 69 68 66 67 65 65 65 66 65 62 60 58 56 55 55 55 55 55 54 54 53 52 52 50 49 48 48 46 51 51 47 44 43 47 55 55 55 54 54
83 75 71 69 68 67 67 68 66 65 66 64 62 59 57 56 58 56 55 53 54 54 54 53 52 51 50 48 48 50 48 47 46 48 52 50 48 42 42 50 52 53 55
79 74 70 70 69 68 66 66 66 66 65 64 62 60 59 58 58 55 53 52 52 52 53 51 49 48 48 48 47 46 46 47 45 45 45 46 46 47 43 41 46 50 52
78 74 72 70 68 68 65 64 65 66 63 62 62 60 57 57 55 53 52 52 51 49 50 50 47 47 46 47 46 47 46 45 45 45 46 45 43 42 41 39 41 41 46
74 70 68 68 66 65 63 63 64 63 62 61 61 60 57 56 54 53 53 50 49 47 47 48 46 45 46 46 46 45 45 44 43 43 43 45 45 45 44 41 38 38 45
69 69 69 68 67 64 63 62 61 61 59 59 58 58 57 55 55 53 52 50 48 46 46 46 46 46 46 46 46 44 44 44 42 43 42 43 43 44 43 40 37 35 39
64 66 68 67 66 63 61 59 60 60 58 57 55 54 55 53 52 50 49 48 46 48 46 46 45 45 45 45 45 42 41 42 41 41 41 40 41 41 42 41 40 37 32
64 64 65 64 64 62 60 58 58 57 56 55 54 53 52 51 49 48 46 46 45 46 46 45 44 44 44 44 44 42 41 41 40 41 39 38 39 40 41 40 40 39 36
63 63 64 64 64 62 60 57 57 55 53 52 51 50 48 47 47 46 45 45 45 46 45 45 44 44 43 44 42 41 41 40 39 39 38 37 39 38 38 38 39 38 37
64 65 65 64 63 61 59 57 55 53 51 51 49 47 46 46 45 44 45 45 44 45 45 45 44 44 44 42 41 40 40 38 37 37 36 35 39 35 35 35 36 36 36
64 63 64 63 62 59 56 55 54 51 50 48 46 44 43 43 43 43 44 45 45 44 44 44 43 43 42 41 40 40 39 37 36 36 33 31 31 29 30 32 33 33 37
63 62 61 60 60 59 57 52 47 46 45 44 43 41 41 42 41 41 43 44 44 43 43 43 42 41 41 41 42 41 38 36 35 34 32 29 26 25 25 30 28 30 30
60 61 59 58 57 57 53 50 47 46 46 44 42 40 40 41 41 40 41 42 43 43 43 41 40 39 38 35 32 37 35 34 33 33 32 30 30 29 27 25 23 24 25
62 62 63 62 57 56 56 53 50 48 46 43 41 39 39 39 36 35 35 39 41 39 39 38 37 33 34 32 34 36 34 32 30 30 30 29 28 29 28 28 28 25 19
61 61 59 60 59 58 56 53 50 48 47 43 37 35 34 33 33 35 37 36 36 35 32 31 30 28 27 31 33 34 30 28 26 25 26 28 26 25 26 28 29 27 26
57 57 55 56 57 57 57 53 52 48 43 35 34 34 34 32 33 32 32 32 32 32 30 30 30 27 26 30 31 32 25 22 26 21 20 19 16 17 20 19 18 16 15
38 45 49 51 53 53 51 47 45 41 36 33 33 33 33 32 32 31 30 31 31 30 29 28 28 25 20 29 28 25 23 22 22 18 16 15 13 25 27 15 13 12 12
41 35 37 47 50 47 47 40 36 35 33 33 33 33 32 32 30 30 30 31 31 30 30 29 30 29 20 28 28 26 24 21 21 21 17 25 17 25 25 12 12 10 10
43 49 38 35 39 48 45 37 34 34 34 33 33 32 32 31 30 30 31 31 30 29 28 28 28 26 22 20 27 27 25 25 23 23 19 13 24 24 24 22 11 10 16
51 50 47 39 36 38 37 35 34 33 33 32 31 30 29 30 30 30 30 30 29 28 27 26 26 27 23 26 26 26 27 26 21 21 16 13 23 23 23 19 24 26 22
52 54 52 41 39 39 37 33 33 33 32 31 30 29 29 30 30 29 28 28 29 28 27 26 25 25 24 22 25 25 25 25 21 16 20 21 21 21 21 24 25 20 17
51 54 50 41 38 39 36 35 33 33 31 30 29 29 28 29 29 30 30 30 29 28 28 27 26 26 25 21 21 19 21 22 17 15 14 13 17 14 14 17 19 16 15
52 52 49 45 41 40 37 34 33 32 31 30 29 29 30 29 29 30 29 30 32 32 30 28 29 26 25 24 25 23 21 20 21 18 14 13 15 17 16 16 17 16 17
53 50 49 47 43 39 35 34 34 33 31 30 30 30 30 29 30 29 27 32 31 31 32 33 28 27 30 30 28 28 26 26 25 20 19 16 16 16 18 17 16 16 16

GFSMW_sfc_temp_165.txt.gz
Temp
74 74 74 72 68 67 64 64 61 59 59 56 54 54 52 53 51 52 53 53 53 53 51 50 50 50 48 47 48 47 47 47 47 46 48 52 53 54 56 55 56 55 55
68 71 71 67 66 64 63 61 62 60 59 57 55 54 53 51 51 51 51 52 51 51 51 49 48 48 47 46 46 46 45 46 47 43 43 44 50 50 55 52 54 51 53
67 67 65 64 63 62 61 61 61 61 58 58 55 52 53 51 48 48 48 49 50 50 50 49 47 46 46 45 44 44 44 43 45 45 43 40 39 42 49 50 50 49 48
68 66 64 62 62 61 61 61 61 61 59 57 54 55 52 49 48 47 46 47 49 49 49 49 47 46 45 44 44 45 42 42 40 43 48 44 43 39 39 45 47 47 49
66 64 64 62 62 62 61 61 61 62 59 57 57 54 49 48 48 49 47 47 47 49 48 47 45 43 43 42 42 42 42 41 40 40 41 41 42 42 40 37 40 44 46
65 64 64 63 62 63 62 62 60 60 59 58 56 54 50 49 48 48 46 45 45 46 46 46 43 42 42 42 42 42 42 41 40 40 40 40 39 38 38 36 36 37 42
62 60 59 59 58 57 59 59 61 56 57 57 54 54 50 51 50 49 47 46 45 43 43 43 42 41 43 44 45 43 43 42 40 39 38 39 41 41 40 37 35 35 39
62 59 57 56 56 56 57 58 58 57 57 57 54 53 53 51 51 48 48 46 44 42 42 42 43 44 44 43 43 40 41 40 38 38 38 38 39 40 39 37 34 31 35
59 59 59 56 54 53 54 55 55 54 53 52 52 50 49 47 47 45 45 44 43 45 44 43 43 43 43 42 41 39 39 39 38 38 37 36 37 37 38 37 36 33 29
58 57 58 57 56 55 53 53 53 52 51 50 50 48 46 46 45 45 44 43 42 43 43 42 43 43 43 42 40 39 39 38 37 36 35 34 35 35 35 35 36 35 32
57 58 58 58 56 54 52 51 50 49 48 47 46 44 43 44 44 43 42 42 43 44 43 43 42 42 42 41 39 38 38 36 35 34 33 32 33 32 32 33 33 33 33
58 58 59 58 56 53 52 50 49 48 47 46 44 43 44 44 43 42 42 43 43 44 44 43 43 42 41 39 38 37 36 34 32 30 30 29 33 27 27 28 29 29 31
56 57 57 56 54 53 51 49 48 47 46 45 44 43 42 41 40 41 41 41 42 42 42 42 41 41 39 39 36 36 35 33 31 29 27 27 26 24 24 27 26 27 31
56 54 53 52 52 52 50 47 46 46 46 45 43 41 40 40 39 39 39 39 40 40 41 41 39 38 36 36 38 37 32 32 30 29 28 26 24 22 23 24 23 25 25
56 55 53 53 53 50 48 47 45 45 45 43 41 39 39 39 39 39 39 39 39 39 39 38 37 35 34 34 31 34 31 30 28 29 29 27 29 30 27 23 21 22 22
56 56 55 55 53 50 47 46 44 43 44 41 39 38 38 38 37 36 35 35 35 34 37 35 32 30 33 35 37 33 30 29 29 27 26 26 27 28 29 29 29 24 15
53 52 52 52 52 50 48 45 45 44 41 38 38 36 36 34 33 33 32 33 33 32 30 29 28 27 29 34 34 32 28 25 22 21 24 24 25 24 24 28 27 26 26
50 48 47 46 47 48 48 45 45 43 40 36 35 36 35 33 33 32 32 32 32 30 28 27 26 26 27 33 32 30 23 19 15 15 14 12 11 12 18 18 14 8 9
37 40 42 44 44 44 43 43 42 40 36 34 35 34 33 33 32 32 31 31 30 29 27 26 24 23 21 31 31 24 20 15 11 12 11 8 7 25 27 12 7 2 6
36 34 36 41 42 40 40 37 35 35 34 34 34 34 34 33 32 31 30 30 29 28 28 26 24 26 19 30 30 24 18 15 12 9 11 25 12 26 24 8 4 2 5
40 38 35 33 35 41 38 35 33 33 33 33 33 33 34 32 32 31 30 29 29 28 27 26 25 22 20 17 29 29 16 19 17 14 5 6 25 25 25 21 6 7 8
42 40 36 34 34 37 37 34 34 33 33 33 32 32 32 32 31 30 30 29 28 26 26 25 23 20 11 25 28 30 27 26 20 14 5 12 25 25 25 16 26 27 13
43 44 39 35 37 38 37 34 33 33 33 32 31 30 30 30 30 29 28 28 28 26 25 24 22 20 16 13 28 28 27 25 15 13 17 23 23 23 20 25 25 12 11
41 43 37 34 35 35 36 35 33 33 32 30 29 29 29 29 29 29 29 28 27 26 26 25 23 21 19 15 14 15 20 22 18 20 17 14 15 9 8 12 14 10 8
43 44 38 35 34 35 35 34 33 33 31 30 29 29 29 29 28 29 29 29 29 29 27 26 25 22 19 18 21 18 17 13 15 14 12 11 12 12 12 11 12 11 12
44 43 41 38 35 34 33 34 34 33 31 29 29 29 29 28 28 28 27 31 31 32 34 32 29 28 28 27 27 26 26 25 23 17 14 14 14 16 17 16 15 13 14

GFSMW_sfc_temp_168.txt.gz
Temp
73 69 69 68 66 65 63 62 60 59 59 57 54 53 49 49 50 51 52 51 52 52 50 49 48 48 46 45 46 45 46 47 45 47 49 52 52 53 51 51 51 52 52
67 65 65 66 64 63 63 61 59 58 59 58 56 51 52 49 49 49 49 50 50 50 49 47 47 47 45 45 44 45 43 44 43 44 43 44 48 48 50 49 50 47 50
65 64 64 62 62 61 60 59 58 59 59 58 54 52 50 49 47 46 46 47 49 49 48 47 46 45 45 43 42 42 43 41 43 43 43 40 40 41 45 45 46 45 45
64 66 63 61 61 60 60 59 59 58 58 57 54 53 51 47 45 45 45 46 48 48 48 47 45 44 43 42 43 44 42 42 41 42 45 42 42 38 39 43 43 45 46
64 63 61 61 60 59 58 59 59 59 56 56 55 52 51 46 48 47 47 46 47 47 47 45 44 43 42 42 41 41 41 42 39 40 39 40 40 39 37 34 37 41 43
61 60 61 60 57 58 57 58 58 57 56 55 54 53 50 48 47 47 45 45 45 45 45 45 43 43 42 42 42 42 41 40 39 39 38 39 39 38 36 34 34 34 39
54 54 55 56 55 54 54 55 56 56 55 54 54 53 51 50 48 47 46 45 44 43 43 43 43 42 42 43 42 41 41 40 39 39 39 40 39 40 38 36 34 34 38
55 55 55 56 55 54 55 56 56 54 53 52 53 52 50 49 49 48 47 45 43 42 42 42 42 42 43 42 41 40 40 40 38 36 36 37 37 39 39 36 34 31 33
54 56 56 55 54 54 54 53 54 53 53 51 50 49 50 47 47 45 45 44 42 44 43 42 41 42 41 41 40 40 38 39 38 37 36 36 36 36 36 36 36 33 29
56 55 55 54 54 54 53 52 52 51 49 48 48 46 44 44 43 43 42 43 44 44 42 41 41 42 42 42 40 38 39 38 37 35 34 32 32 32 33 32 34 33 31
55 54 55 56 57 56 53 51 50 49 47 46 45 45 44 44 43 42 42 43 43 43 42 42 43 43 42 40 39 38 38 35 33 33 31 30 29 27 28 29 30 29 30
54 55 55 54 52 51 51 49 49 48 47 45 44 43 44 44 42 41 42 43 43 43 43 42 41 42 41 39 38 38 36 33 31 30 29 29 32 26 26 26 26 26 28
56 55 52 52 51 51 49 48 47 45 44 45 44 42 41 41 41 41 40 41 40 39 39 39 39 40 40 38 37 35 33 31 30 29 27 27 26 24 25 25 25 25 30
54 54 52 49 50 51 48 47 45 45 44 44 43 41 40 40 39 39 39 39 38 37 36 37 38 37 36 37 37 35 31 29 29 28 27 26 24 23 24 24 24 25 25
52 52 51 49 49 48 47 47 45 44 44 43 41 39 38 40 39 38 38 38 36 35 35 34 33 32 33 35 34 33 31 29 27 27 28 28 30 30 27 23 21 22 22
52 53 53 51 49 49 47 46 44 43 43 40 37 37 38 38 37 37 35 34 33 33 33 32 31 30 33 36 35 33 30 29 27 25 25 27 28 29 30 29 29 23 15
50 50 50 50 49 48 47 44 43 42 40 37 37 36 36 35 34 34 33 33 33 32 29 29 29 29 31 36 34 32 28 26 25 24 25 25 26 25 25 27 26 27 26
47 47 46 46 46 45 44 41 41 40 36 36 36 36 35 33 33 33 33 32 32 30 28 27 27 28 30 34 32 28 21 17 15 14 13 13 11 13 19 16 11 6 8
41 43 43 43 43 44 44 42 40 38 36 35 34 35 34 33 33 33 33 32 30 29 26 26 25 25 27 32 31 24 20 16 13 9 7 7 7 24 26 10 5 1 4
36 35 38 41 40 38 39 36 34 35 35 35 34 34 34 33 33 33 32 32 31 28 27 24 24 26 24 32 30 24 18 15 10 7 9 25 10 26 25 7 5 3 5
36 36 36 35 38 38 39 35 34 34 34 34 33 33 34 33 33 33 32 30 29 28 26 24 24 24 24 26 31 27 18 15 11 8 5 5 27 26 25 20 7 8 3
38 38 35 35 34 36 37 35 34 33 34 33 33 33 33 33 32 31 30 29 28 27 25 23 22 22 22 26 30 30 24 22 15 8 2 5 26 27 26 17 24 26 9
39 39 36 36 36 35 35 34 34 34 33 33 33 32 32 32 31 30 29 28 27 26 25 23 21 20 17 13 29 30 30 27 14 11 14 24 26 26 22 27 25 12 8
39 39 36 35 36 36 35 35 34 34 33 32 31 31 30 30 30 30 29 28 27 26 26 24 22 21 19 15 15 17 25 23 17 20 19 15 16 11 11 14 16 13 8
39 38 37 34 35 33 34 34 34 33 32 31 30 30 30 29 29 29 29 28 29 29 26 25 24 21 18 16 20 18 15 15 18 14 13 11 12 12 13 14 14 15 15
40 38 36 35 34 33 32 33 34 33 32 30 29 29 29 29 28 28 27 31 31 31 31 30 27 25 25 26 26 26 25 24 22 17 15 11 12 15 16 15 16 16 16

GFSMW_sfc_temp_171.txt.gz
Temp
70 72 70 69 67 67 66 61 59 58 58 56 54 52 47 47 47 48 50 50 50 51 50 48 48 48 46 46 47 45 45 44 44 48 50 49 48 47 47 48 48 50 49
64 63 65 67 67 66 62 61 59 57 58 58 54 51 51 47 47 46 47 49 49 48 48 47 45 45 44 44 45 45 44 44 43 44 44 43 48 46 47 46 48 45 47
60 60 62 64 65 62 61 59 57 57 56 55 53 51 49 47 45 44 44 46 48 48 47 46 45 44 43 42 42 44 46 43 43 43 44 39 39 41 44 44 44 43 43
56 61 62 61 61 61 61 59 57 56 55 56 53 52 50 47 44 43 43 44 46 46 46 46 44 44 44 44 44 45 44 43 42 42 44 41 42 39 39 41 41 42 43
54 59 61 61 60 59 58 57 56 57 55 54 53 51 49 45 45 44 44 43 44 46 46 44 43 42 41 41 41 41 40 40 40 41 41 40 39 39 37 35 37 39 39
51 53 54 55 55 56 55 55 56 55 55 54 53 52 48 47 45 44 43 43 43 43 44 44 42 42 41 41 40 41 41 41 39 39 40 40 39 37 37 33 32 34 38
51 52 53 53 54 54 54 55 55 53 53 53 52 50 48 49 48 46 45 43 42 42 41 41 41 41 42 42 42 41 40 40 39 40 38 40 40 41 38 37 33 34 37
52 53 54 55 55 54 54 54 53 53 52 50 50 50 50 48 47 48 46 45 43 40 41 42 42 43 43 41 40 39 38 37 37 36 37 38 38 40 39 37 34 33 33
51 53 54 54 54 54 54 54 53 52 51 50 50 49 50 48 46 46 46 44 43 43 42 42 41 40 41 40 39 37 37 39 37 35 34 34 35 36 37 37 37 34 30
51 53 55 55 56 56 55 53 53 52 52 50 50 49 48 48 47 46 44 43 43 43 42 41 41 41 40 39 38 37 39 37 35 33 32 32 32 32 33 34 35 34 32
51 52 54 54 55 54 52 51 50 48 47 47 46 45 44 44 45 44 43 43 43 43 42 41 40 40 40 39 39 38 37 35 33 31 31 30 30 30 30 30 30 30 30
52 51 52 52 50 49 49 49 49 48 46 45 44 42 42 43 43 42 42 43 42 43 42 41 41 40 40 39 38 38 35 33 32 31 31 30 32 27 27 28 27 28 28
52 53 50 48 48 47 47 47 47 45 44 44 43 41 40 40 39 40 41 41 40 39 40 40 39 39 39 38 36 36 34 32 30 29 28 28 28 26 26 26 26 26 30
53 52 49 48 49 49 48 47 44 43 43 42 41 39 38 39 39 39 39 39 38 37 37 38 39 37 36 36 35 34 31 30 29 29 28 27 26 24 25 25 24 25 25
50 50 48 46 47 46 45 45 43 43 43 42 40 37 36 37 37 37 37 37 37 36 36 35 33 32 32 33 32 32 30 28 28 28 29 28 30 30 28 24 21 22 22
51 52 51 49 48 47 46 45 43 42 42 39 36 35 35 35 36 37 36 35 34 33 32 32 32 31 32 32 33 32 31 30 28 26 26 28 29 30 30 30 28 23 17
48 49 49 49 49 48 47 44 42 41 39 35 35 35 35 35 35 35 34 33 32 32 31 31 30 30 32 33 32 32 30 28 26 25 25 26 27 26 26 27 27 27 27
48 47 48 47 48 46 44 41 40 39 36 35 35 36 35 34 34 33 33 32 32 31 30 29 29 30 31 34 32 30 24 22 20 17 14 14 13 14 19 16 11 6 7
42 45 44 44 42 42 40 40 39 37 35 35 35 35 34 34 33 33 32 32 31 29 29 28 28 29 30 33 30 25 21 19 16 15 10 11 9 22 26 12 7 2 5
39 36 38 40 41 39 39 37 35 34 34 35 35 35 34 34 33 33 33 32 31 29 28 26 27 29 29 32 29 24 19 16 13 9 11 24 14 27 25 10 7 4 3
37 39 38 35 37 40 39 36 34 34 34 34 34 34 35 34 34 33 33 32 30 28 26 24 24 26 26 29 30 26 20 17 13 10 9 8 27 27 26 19 8 8 1
36 39 39 38 35 37 37 35 35 34 34 34 34 33 33 33 33 33 31 30 28 26 24 22 22 23 24 28 31 28 24 22 15 12 6 5 27 27 27 17 22 25 7
36 36 37 36 36 37 37 35 34 34 34 34 33 33 33 33 33 31 30 29 28 26 24 23 21 21 22 22 29 30 27 26 11 11 15 22 27 28 24 25 26 12 7
38 37 35 34 34 36 36 36 34 34 34 33 32 32 32 31 31 31 30 28 27 26 25 24 22 21 20 20 21 25 27 25 17 20 19 14 15 12 10 16 13 9 9
39 38 35 36 34 37 36 34 34 34 33 32 31 31 31 30 30 30 29 29 29 29 26 25 24 21 19 20 23 23 21 18 19 16 12 11 12 12 13 14 12 13 15
39 37 36 35 35 34 34 34 34 34 32 31 30 30 30 29 29 29 28 31 30 31 30 30 27 25 26 26 28 28 26 25 21 17 13 8 9 14 14 14 15 14 15

GFSMW_sfc_temp_174.txt.gz
Temp
63 67 67 67 67 69 68 66 62 59 58 56 54 54 52 51 49 51 51 50 50 49 48 47 47 47 47 46 47 45 46 46 47 48 48 48 48 47 47 49 49 49 49
56 63 65 65 65 67 67 63 61 58 58 58 54 50 51 50 48 49 49 48 48 48 48 46 45 45 44 44 45 45 44 44 44 45 46 44 48 47 46 46 47 45 48
53 57 61 64 65 66 66 63 61 59 58 54 52 51 51 51 50 49 47 46 47 47 46 45 44 43 43 43 43 44 45 43 43 43 46 41 40 42 44 43 44 43 44
51 53 58 62 65 66 65 62 59 58 56 55 53 53 52 48 47 47 45 45 46 45 46 47 46 46 45 45 45 44 43 44 42 42 44 42 43 40 38 42 41 43 43
49 50 52 57 60 60 59 57 57 55 55 54 54 52 49 47 47 45 45 43 44 46 48 47 45 44 44 42 43 44 43 43 43 43 41 40 40 40 39 36 38 40 41
49 52 54 54 53 54 54 54 53 53 54 53 52 51 48 46 45 45 44 45 45 45 45 45 44 43 42 43 42 43 42 42 41 42 42 42 40 39 38 35 35 36 38
48 50 52 52 52 52 52 52 52 51 52 51 51 50 48 47 47 46 45 44 43 43 43 43 43 42 42 42 42 42 40 40 40 39 39 40 40 41 40 38 34 35 38
49 50 52 53 53 53 52 52 52 51 51 50 49 48 48 47 47 48 47 45 44 43 42 43 43 42 43 42 41 40 38 38 37 36 37 38 38 41 40 38 35 33 34
48 49 51 52 53 54 54 54 53 52 51 51 49 47 47 46 45 45 46 45 43 43 42 42 42 42 42 42 41 39 37 36 35 35 36 36 35 36 37 38 38 36 33
48 49 51 52 54 55 55 54 54 53 52 51 49 48 47 47 46 45 43 43 43 43 42 41 41 41 41 41 40 38 37 35 35 35 34 33 33 34 34 35 37 37 36
48 49 50 52 52 53 53 52 52 51 49 48 46 46 45 45 45 44 43 43 43 43 42 42 42 41 40 40 39 37 37 35 33 32 33 31 33 32 33 34 34 33 34
49 49 49 49 48 47 48 48 47 48 47 46 45 44 45 44 43 43 43 43 42 43 42 42 40 40 40 39 38 38 36 34 32 32 33 31 33 31 31 31 31 31 32
52 51 49 48 47 46 47 46 46 45 43 44 42 41 41 41 40 41 42 42 41 41 41 40 40 40 38 38 37 35 33 32 32 31 30 29 30 28 28 29 29 29 31
52 51 49 47 47 47 46 44 43 42 42 41 40 39 39 39 39 39 39 39 40 39 38 39 37 36 36 36 35 33 30 29 30 30 30 29 28 27 27 27 27 28 28
49 49 48 46 45 44 44 44 42 41 41 40 38 36 35 36 36 36 36 36 36 37 37 35 34 33 33 33 32 31 30 29 28 30 30 29 30 30 29 25 24 26 26
48 49 49 48 45 45 44 43 41 40 41 38 36 35 35 35 35 35 36 36 35 34 33 33 33 32 33 34 33 31 29 29 28 27 29 31 32 30 31 30 28 25 22
49 49 48 48 48 47 46 43 41 40 39 36 34 34 34 34 34 35 34 33 33 33 32 32 32 30 31 34 34 32 29 28 27 27 27 28 29 28 27 28 27 28 27
48 47 47 46 47 46 45 41 40 39 36 34 34 34 34 34 34 34 33 33 33 32 32 31 31 31 31 34 33 31 27 26 24 24 23 22 19 21 20 18 15 12 13
44 46 45 44 43 43 41 40 38 36 35 34 34 34 34 33 33 33 33 33 32 31 30 30 30 30 31 34 32 27 24 22 20 19 19 18 17 25 26 15 13 10 11
41 37 38 40 40 38 40 38 35 35 35 34 34 35 34 34 33 33 33 33 32 31 30 29 29 31 30 33 31 26 22 18 17 18 18 24 19 27 25 13 12 11 8
38 39 36 35 38 39 39 36 34 35 34 35 34 34 35 34 34 33 33 32 31 29 28 27 28 29 30 30 30 27 22 20 18 18 17 17 28 29 26 20 13 14 7
38 40 38 37 36 39 39 35 35 34 35 34 34 34 34 34 34 33 32 31 29 27 26 25 24 25 27 31 30 29 25 24 19 17 17 15 28 29 27 19 23 25 9
38 41 40 37 38 38 38 35 34 35 35 34 34 33 33 33 33 33 31 29 29 27 25 24 23 22 24 28 30 29 27 26 16 17 19 23 28 29 26 25 27 13 11
35 37 38 37 36 37 37 36 35 35 34 33 33 33 33 32 33 32 32 30 28 26 25 24 23 22 23 23 25 27 26 24 18 22 21 16 15 10 10 19 16 14 14
36 36 36 36 35 37 36 37 35 35 34 34 33 32 32 32 31 31 31 30 30 29 27 25 24 22 20 22 25 26 24 19 19 16 16 13 12 13 14 14 14 15 16
37 36 34 35 33 36 36 34 36 35 34 32 32 31 31 30 30 29 28 31 31 31 31 30 27 26 27 27 28 29 28 26 22 18 16 13 11 14 15 15 16 17 16

GFSMW_sfc_temp_180.txt.gz
Temp
86 84 86 87 85 84 78 75 71 71 71 69 65 60 63 59 59 61 62 63 63 64 68 71 69 70 71 71 69 70 68 69 68 65 65 65 66 67 68 69 68 66 66
81 79 81 84 82 81 76 73 70 67 67 67 65 64 61 58 59 58 58 60 61 62 67 69 68 69 70 68 67 68 68 68 68 67 65 58 60 64 66 67 66 64 65
75 76 76 78 81 76 75 71 68 66 66 65 61 57 55 54 54 55 55 57 60 61 63 66 66 66 68 66 66 66 65 62 67 68 67 61 61 59 61 61 63 62 64
71 73 74 76 77 76 74 70 66 64 64 61 59 57 59 56 58 56 56 56 59 61 56 52 53 58 59 59 60 62 62 65 61 63 65 64 67 60 54 59 59 62 61
64 63 61 65 64 62 59 61 60 58 58 58 58 57 53 51 50 50 48 49 50 51 50 52 50 49 50 54 56 57 58 63 62 62 61 61 63 66 64 54 55 59 61
63 65 64 63 60 58 56 55 55 55 55 54 53 51 50 49 48 48 46 46 45 45 47 47 47 49 51 51 54 54 56 60 60 63 60 58 58 60 59 58 56 56 56
59 65 67 65 61 57 54 53 53 51 52 52 52 52 51 50 49 48 47 45 45 44 45 47 46 46 49 53 53 52 52 54 56 54 54 53 54 58 61 60 56 54 55
60 62 63 63 60 61 60 58 56 53 53 53 52 52 52 51 50 49 48 49 47 47 46 47 47 46 46 47 47 46 45 47 47 49 51 52 54 57 59 59 55 52 51
64 63 62 63 65 66 65 65 64 63 59 55 54 52 52 51 50 48 52 48 49 50 50 49 46 48 49 47 47 46 45 46 47 49 49 50 50 53 55 55 57 54 49
65 62 61 63 69 69 68 67 66 65 63 60 57 53 52 51 51 50 50 51 49 49 47 50 49 48 48 48 49 48 48 47 47 49 46 46 50 49 51 54 55 56 55
66 63 65 69 70 70 69 67 66 64 61 60 59 56 55 53 53 53 53 54 49 48 46 47 47 47 47 47 45 45 45 46 46 46 46 44 46 46 47 48 50 52 53
69 68 68 69 69 69 69 68 67 66 65 64 63 61 57 57 55 52 49 46 45 46 46 46 46 45 43 43 43 43 44 45 42 41 41 41 43 42 44 46 46 49 49
68 69 69 68 68 68 69 69 68 67 67 65 61 58 57 55 53 50 47 47 47 47 49 49 48 47 45 44 49 48 46 46 45 44 41 38 40 41 43 45 47 48 47
66 68 68 68 68 69 69 68 67 67 65 63 60 58 56 56 56 54 52 51 52 51 51 51 51 50 49 50 50 47 45 43 41 41 40 40 42 43 42 44 43 44 45
64 65 68 68 69 68 68 67 67 65 63 61 60 59 57 57 55 54 54 54 53 53 53 51 50 49 48 48 46 44 43 42 40 39 39 39 35 31 32 38 41 42 44
64 67 68 67 68 67 65 64 64 62 62 61 59 57 56 55 54 54 53 53 52 51 50 48 43 40 44 37 38 42 43 42 42 41 41 39 34 32 30 29 29 31 36
58 63 67 68 67 68 66 65 65 63 61 60 59 51 52 50 49 52 52 49 48 48 44 39 41 38 40 36 37 38 42 41 40 40 40 37 34 33 33 29 29 28 29
56 59 63 66 68 67 68 65 65 62 59 58 52 50 50 40 47 43 38 40 41 36 35 35 35 37 35 36 35 36 36 34 34 33 33 32 31 30 29 28 27 28 30
47 48 50 53 59 62 65 65 62 60 56 49 44 43 40 38 41 35 35 35 35 34 33 34 34 34 34 36 35 34 33 32 32 31 31 31 30 28 28 26 26 27 28
52 40 43 50 53 57 63 58 55 52 44 43 41 40 37 37 36 35 34 35 35 34 36 34 34 34 33 35 34 34 33 31 31 30 29 29 30 29 27 27 27 27 28
52 55 53 39 49 57 59 56 45 44 41 40 38 40 44 38 36 36 35 34 34 34 34 33 33 34 34 34 35 34 33 32 31 31 30 30 29 29 28 28 28 29 30
55 56 53 52 47 45 56 55 47 43 42 39 39 38 38 38 38 36 34 34 34 33 33 32 32 33 33 34 34 34 34 34 32 31 31 31 29 31 29 28 28 27 29
56 57 56 52 49 49 54 46 43 43 41 40 38 36 38 38 37 35 34 35 35 35 33 32 32 32 33 33 34 32 32 32 32 32 31 30 30 31 28 28 27 26 30
55 56 54 50 46 45 49 50 41 41 40 39 38 38 37 36 36 37 36 36 35 35 34 32 32 32 32 33 33 33 31 29 30 29 29 30 30 30 30 29 28 30 31
52 55 52 50 46 45 43 40 41 41 40 39 38 37 37 36 35 35 36 36 37 37 34 34 34 32 32 33 34 32 31 31 31 29 29 29 29 29 29 30 30 32 32
47 48 52 49 47 43 42 41 42 43 40 38 36 36 36 36 35 34 33 34 35 35 35 34 34 34 34 33 32 32 31 30 28 28 27 28 29 30 31 31 31 33 31